Year,Month,Day,Hour,Minute,Value (Times are PST for temperature in C)
2016,05,07,00,00,15.90
2016,05,07,00,01,16.00
2016,05,07,00,02,16.00
2016,05,07,00,03,16.00
2016,05,07,00,04,16.00
2016,05,07,00,05,16.00
2016,05,07,00,06,15.90
2016,05,07,00,07,15.90
2016,05,07,00,08,15.80
2016,05,07,00,09,15.70
2016,05,07,00,10,15.70
2016,05,07,00,11,15.60
2016,05,07,00,12,15.50
2016,05,07,00,13,15.50
2016,05,07,00,14,15.40
2016,05,07,00,15,15.40
2016,05,07,00,16,15.30
2016,05,07,00,17,15.30
2016,05,07,00,18,15.30
2016,05,07,00,19,15.20
2016,05,07,00,20,15.20
2016,05,07,00,21,15.10
2016,05,07,00,22,15.10
2016,05,07,00,23,15.10
2016,05,07,00,24,15.00
2016,05,07,00,25,15.00
2016,05,07,00,26,14.90
2016,05,07,00,27,14.90
2016,05,07,00,28,14.90
2016,05,07,00,29,14.90
2016,05,07,00,30,14.80
2016,05,07,00,31,14.80
2016,05,07,00,32,14.80
2016,05,07,00,33,14.80
2016,05,07,00,34,14.80
2016,05,07,00,35,14.80
2016,05,07,00,36,14.80
2016,05,07,00,37,14.70
2016,05,07,00,38,14.70
2016,05,07,00,39,14.60
2016,05,07,00,40,14.60
2016,05,07,00,41,14.50
2016,05,07,00,42,14.50
2016,05,07,00,43,14.40
2016,05,07,00,44,14.30
2016,05,07,00,45,14.30
2016,05,07,00,46,14.20
2016,05,07,00,47,14.20
2016,05,07,00,48,14.10
2016,05,07,00,49,14.10
2016,05,07,00,50,14.10
2016,05,07,00,51,14.00
2016,05,07,00,52,14.00
2016,05,07,00,53,13.90
2016,05,07,00,54,13.90
2016,05,07,00,55,13.80
2016,05,07,00,56,13.80
2016,05,07,00,57,13.80
2016,05,07,00,58,13.70
2016,05,07,00,59,13.70
2016,05,07,01,00,13.70
2016,05,07,01,01,13.70
2016,05,07,01,02,13.70
2016,05,07,01,03,13.60
2016,05,07,01,04,13.60
2016,05,07,01,05,13.60
2016,05,07,01,06,13.60
2016,05,07,01,07,13.60
2016,05,07,01,08,13.50
2016,05,07,01,09,13.50
2016,05,07,01,10,13.50
2016,05,07,01,11,13.50
2016,05,07,01,12,13.50
2016,05,07,01,13,13.40
2016,05,07,01,14,13.40
2016,05,07,01,15,13.40
2016,05,07,01,16,13.40
2016,05,07,01,17,13.50
2016,05,07,01,18,13.50
2016,05,07,01,19,13.50
2016,05,07,01,20,13.50
2016,05,07,01,21,13.50
2016,05,07,01,22,13.50
2016,05,07,01,23,13.50
2016,05,07,01,24,13.60
2016,05,07,01,25,13.60
2016,05,07,01,26,13.60
2016,05,07,01,27,13.60
2016,05,07,01,28,13.50
2016,05,07,01,29,13.50
2016,05,07,01,30,13.50
2016,05,07,01,31,13.40
2016,05,07,01,32,13.40
2016,05,07,01,33,13.40
2016,05,07,01,34,13.40
2016,05,07,01,35,13.30
2016,05,07,01,36,13.20
2016,05,07,01,37,13.10
2016,05,07,01,38,13.10
2016,05,07,01,39,13.00
2016,05,07,01,40,12.90
2016,05,07,01,41,12.90
2016,05,07,01,42,12.80
2016,05,07,01,43,12.80
2016,05,07,01,44,12.80
2016,05,07,01,45,12.80
2016,05,07,01,46,12.70
2016,05,07,01,47,12.80
2016,05,07,01,48,12.80
2016,05,07,01,49,12.80
2016,05,07,01,50,12.80
2016,05,07,01,51,12.90
2016,05,07,01,52,12.90
2016,05,07,01,53,12.90
2016,05,07,01,54,12.90
2016,05,07,01,55,12.90
2016,05,07,01,56,13.00
2016,05,07,01,57,13.00
2016,05,07,01,58,13.10
2016,05,07,01,59,13.20
2016,05,07,02,00,13.30
2016,05,07,02,01,13.30
2016,05,07,02,02,13.30
2016,05,07,02,03,13.40
2016,05,07,02,04,13.40
2016,05,07,02,05,13.50
2016,05,07,02,06,13.50
2016,05,07,02,07,13.60
2016,05,07,02,08,13.60
2016,05,07,02,09,13.70
2016,05,07,02,10,13.70
2016,05,07,02,11,13.70
2016,05,07,02,12,13.70
2016,05,07,02,13,13.80
2016,05,07,02,14,13.80
2016,05,07,02,15,13.80
2016,05,07,02,16,13.80
2016,05,07,02,17,13.90
2016,05,07,02,18,13.90
2016,05,07,02,19,14.00
2016,05,07,02,20,14.00
2016,05,07,02,21,14.10
2016,05,07,02,22,14.20
2016,05,07,02,23,14.20
2016,05,07,02,24,14.30
2016,05,07,02,25,14.30
2016,05,07,02,26,14.30
2016,05,07,02,27,14.30
2016,05,07,02,28,14.30
2016,05,07,02,29,14.20
2016,05,07,02,30,14.20
2016,05,07,02,31,14.10
2016,05,07,02,32,14.00
2016,05,07,02,33,13.90
2016,05,07,02,34,13.80
2016,05,07,02,35,13.70
2016,05,07,02,36,13.60
2016,05,07,02,37,13.60
2016,05,07,02,38,13.60
2016,05,07,02,39,13.60
2016,05,07,02,40,13.60
2016,05,07,02,41,13.60
2016,05,07,02,42,13.60
2016,05,07,02,43,13.60
2016,05,07,02,44,13.60
2016,05,07,02,45,13.60
2016,05,07,02,46,13.60
2016,05,07,02,47,13.60
2016,05,07,02,48,13.50
2016,05,07,02,49,13.40
2016,05,07,02,50,13.40
2016,05,07,02,51,13.30
2016,05,07,02,52,13.20
2016,05,07,02,53,13.20
2016,05,07,02,54,13.10
2016,05,07,02,55,13.00
2016,05,07,02,56,13.00
2016,05,07,02,57,12.90
2016,05,07,02,58,12.80
2016,05,07,02,59,12.80
2016,05,07,03,00,12.70
2016,05,07,03,01,12.70
2016,05,07,03,02,12.70
2016,05,07,03,03,12.60
2016,05,07,03,04,12.60
2016,05,07,03,05,12.60
2016,05,07,03,06,12.60
2016,05,07,03,07,12.60
2016,05,07,03,08,12.60
2016,05,07,03,09,12.60
2016,05,07,03,10,12.60
2016,05,07,03,11,12.50
2016,05,07,03,12,12.50
2016,05,07,03,13,12.50
2016,05,07,03,14,12.40
2016,05,07,03,15,12.40
2016,05,07,03,16,12.40
2016,05,07,03,17,12.30
2016,05,07,03,18,12.30
2016,05,07,03,19,12.30
2016,05,07,03,20,12.20
2016,05,07,03,21,12.20
2016,05,07,03,22,12.20
2016,05,07,03,23,12.10
2016,05,07,03,24,12.10
2016,05,07,03,25,12.10
2016,05,07,03,26,12.00
2016,05,07,03,27,12.00
2016,05,07,03,28,12.00
2016,05,07,03,29,12.00
2016,05,07,03,30,11.90
2016,05,07,03,31,11.90
2016,05,07,03,32,11.90
2016,05,07,03,33,11.90
2016,05,07,03,34,11.90
2016,05,07,03,35,11.80
2016,05,07,03,36,11.80
2016,05,07,03,37,11.80
2016,05,07,03,38,11.80
2016,05,07,03,39,11.80
2016,05,07,03,40,11.80
2016,05,07,03,41,11.90
2016,05,07,03,42,11.90
2016,05,07,03,43,11.90
2016,05,07,03,44,12.00
2016,05,07,03,45,12.00
2016,05,07,03,46,12.10
2016,05,07,03,47,12.10
2016,05,07,03,48,12.20
2016,05,07,03,49,12.30
2016,05,07,03,50,12.30
2016,05,07,03,51,12.40
2016,05,07,03,52,12.40
2016,05,07,03,53,12.40
2016,05,07,03,54,12.40
2016,05,07,03,55,12.40
2016,05,07,03,56,12.30
2016,05,07,03,57,12.30
2016,05,07,03,58,12.30
2016,05,07,03,59,12.30
2016,05,07,04,00,12.20
2016,05,07,04,01,12.20
2016,05,07,04,02,12.20
2016,05,07,04,03,12.20
2016,05,07,04,04,12.20
2016,05,07,04,05,12.20
2016,05,07,04,06,12.30
2016,05,07,04,07,12.30
2016,05,07,04,08,12.30
2016,05,07,04,09,12.30
2016,05,07,04,10,12.30
2016,05,07,04,11,12.30
2016,05,07,04,12,12.20
2016,05,07,04,13,12.20
2016,05,07,04,14,12.10
2016,05,07,04,15,12.10
2016,05,07,04,16,12.00
2016,05,07,04,17,11.90
2016,05,07,04,18,11.90
2016,05,07,04,19,11.80
2016,05,07,04,20,11.80
2016,05,07,04,21,11.70
2016,05,07,04,22,11.70
2016,05,07,04,23,11.60
2016,05,07,04,24,11.60
2016,05,07,04,25,11.60
2016,05,07,04,26,11.60
2016,05,07,04,27,11.60
2016,05,07,04,28,11.50
2016,05,07,04,29,11.50
2016,05,07,04,30,11.50
2016,05,07,04,31,11.50
2016,05,07,04,32,11.50
2016,05,07,04,33,11.40
2016,05,07,04,34,11.40
2016,05,07,04,35,11.40
2016,05,07,04,36,11.40
2016,05,07,04,37,11.30
2016,05,07,04,38,11.30
2016,05,07,04,39,11.30
2016,05,07,04,40,11.30
2016,05,07,04,41,11.30
2016,05,07,04,42,11.20
2016,05,07,04,43,11.20
2016,05,07,04,44,11.20
2016,05,07,04,45,11.20
2016,05,07,04,46,11.20
2016,05,07,04,47,11.20
2016,05,07,04,48,11.20
2016,05,07,04,49,11.20
2016,05,07,04,50,11.20
2016,05,07,04,51,11.20
2016,05,07,04,52,11.20
2016,05,07,04,53,11.20
2016,05,07,04,54,11.20
2016,05,07,04,55,11.10
2016,05,07,04,56,11.10
2016,05,07,04,57,11.10
2016,05,07,04,58,11.10
2016,05,07,04,59,11.10
2016,05,07,05,00,11.10
2016,05,07,05,01,11.10
2016,05,07,05,02,11.10
2016,05,07,05,03,11.20
2016,05,07,05,04,11.10
2016,05,07,05,05,11.10
2016,05,07,05,06,11.10
2016,05,07,05,07,11.00
2016,05,07,05,08,11.00
2016,05,07,05,09,10.90
2016,05,07,05,10,10.90
2016,05,07,05,11,10.80
2016,05,07,05,12,10.80
2016,05,07,05,13,10.80
2016,05,07,05,14,10.80
2016,05,07,05,15,10.70
2016,05,07,05,16,10.70
2016,05,07,05,17,10.70
2016,05,07,05,18,10.70
2016,05,07,05,19,10.70
2016,05,07,05,20,10.80
2016,05,07,05,21,10.80
2016,05,07,05,22,10.90
2016,05,07,05,23,11.00
2016,05,07,05,24,11.10
2016,05,07,05,25,11.20
2016,05,07,05,26,11.30
2016,05,07,05,27,11.30
2016,05,07,05,28,11.40
2016,05,07,05,29,11.40
2016,05,07,05,30,11.40
2016,05,07,05,31,11.40
2016,05,07,05,32,11.40
2016,05,07,05,33,11.40
2016,05,07,05,34,11.40
2016,05,07,05,35,11.40
2016,05,07,05,36,11.30
2016,05,07,05,37,11.30
2016,05,07,05,38,11.30
2016,05,07,05,39,11.30
2016,05,07,05,40,11.20
2016,05,07,05,41,11.20
2016,05,07,05,42,11.20
2016,05,07,05,43,11.10
2016,05,07,05,44,11.10
2016,05,07,05,45,11.10
2016,05,07,05,46,11.00
2016,05,07,05,47,11.00
2016,05,07,05,48,11.00
2016,05,07,05,49,11.00
2016,05,07,05,50,10.90
2016,05,07,05,51,11.00
2016,05,07,05,52,11.00
2016,05,07,05,53,11.10
2016,05,07,05,54,11.10
2016,05,07,05,55,11.10
2016,05,07,05,56,11.20
2016,05,07,05,57,11.20
2016,05,07,05,58,11.30
2016,05,07,05,59,11.30
2016,05,07,06,00,11.40
2016,05,07,06,01,11.50
2016,05,07,06,02,11.60
2016,05,07,06,03,11.60
2016,05,07,06,04,11.70
2016,05,07,06,05,11.70
2016,05,07,06,06,11.70
2016,05,07,06,07,11.70
2016,05,07,06,08,11.70
2016,05,07,06,09,11.70
2016,05,07,06,10,11.80
2016,05,07,06,11,11.80
2016,05,07,06,12,11.80
2016,05,07,06,13,11.70
2016,05,07,06,14,11.70
2016,05,07,06,15,11.70
2016,05,07,06,16,11.60
2016,05,07,06,17,11.60
2016,05,07,06,18,11.50
2016,05,07,06,19,11.50
2016,05,07,06,20,11.40
2016,05,07,06,21,11.30
2016,05,07,06,22,11.30
2016,05,07,06,23,11.20
2016,05,07,06,24,11.20
2016,05,07,06,25,11.10
2016,05,07,06,26,11.00
2016,05,07,06,27,11.00
2016,05,07,06,28,10.90
2016,05,07,06,29,10.90
2016,05,07,06,30,10.80
2016,05,07,06,31,10.80
2016,05,07,06,32,10.80
2016,05,07,06,33,10.80
2016,05,07,06,34,10.80
2016,05,07,06,35,10.80
2016,05,07,06,36,10.70
2016,05,07,06,37,10.70
2016,05,07,06,38,10.70
2016,05,07,06,39,10.60
2016,05,07,06,40,10.60
2016,05,07,06,41,10.60
2016,05,07,06,42,10.50
2016,05,07,06,43,10.50
2016,05,07,06,44,10.50
2016,05,07,06,45,10.50
2016,05,07,06,46,10.50
2016,05,07,06,47,10.50
2016,05,07,06,48,10.50
2016,05,07,06,49,10.60
2016,05,07,06,50,10.60
2016,05,07,06,51,10.70
2016,05,07,06,52,10.80
2016,05,07,06,53,10.90
2016,05,07,06,54,11.00
2016,05,07,06,55,11.20
2016,05,07,06,56,11.30
2016,05,07,06,57,11.40
2016,05,07,06,58,11.50
2016,05,07,06,59,11.60
2016,05,07,07,00,11.70
2016,05,07,07,01,11.70
2016,05,07,07,02,11.70
2016,05,07,07,03,11.80
2016,05,07,07,04,11.80
2016,05,07,07,05,11.90
2016,05,07,07,06,11.90
2016,05,07,07,07,12.00
2016,05,07,07,08,12.00
2016,05,07,07,09,12.10
2016,05,07,07,10,12.20
2016,05,07,07,11,12.30
2016,05,07,07,12,12.30
2016,05,07,07,13,12.50
2016,05,07,07,14,12.50
2016,05,07,07,15,12.60
2016,05,07,07,16,12.70
2016,05,07,07,17,12.80
2016,05,07,07,18,12.90
2016,05,07,07,19,12.90
2016,05,07,07,20,13.00
2016,05,07,07,21,13.00
2016,05,07,07,22,13.10
2016,05,07,07,23,13.20
2016,05,07,07,24,13.30
2016,05,07,07,25,13.30
2016,05,07,07,26,13.40
2016,05,07,07,27,13.40
2016,05,07,07,28,13.50
2016,05,07,07,29,13.60
2016,05,07,07,30,13.60
2016,05,07,07,31,13.70
2016,05,07,07,32,13.70
2016,05,07,07,33,13.70
2016,05,07,07,34,13.70
2016,05,07,07,35,13.70
2016,05,07,07,36,13.70
2016,05,07,07,37,13.70
2016,05,07,07,38,13.70
2016,05,07,07,39,13.70
2016,05,07,07,40,13.70
2016,05,07,07,41,13.70
2016,05,07,07,42,13.70
2016,05,07,07,43,13.70
2016,05,07,07,44,13.70
2016,05,07,07,45,13.70
2016,05,07,07,46,13.70
2016,05,07,07,47,13.80
2016,05,07,07,48,13.80
2016,05,07,07,49,13.90
2016,05,07,07,50,13.90
2016,05,07,07,51,13.90
2016,05,07,07,52,14.00
2016,05,07,07,53,14.00
2016,05,07,07,54,14.10
2016,05,07,07,55,14.10
2016,05,07,07,56,14.10
2016,05,07,07,57,14.20
2016,05,07,07,58,14.20
2016,05,07,07,59,14.30
2016,05,07,08,00,14.40
2016,05,07,08,01,14.40
2016,05,07,08,02,14.50
2016,05,07,08,03,14.50
2016,05,07,08,04,14.60
2016,05,07,08,05,14.60
2016,05,07,08,06,14.60
2016,05,07,08,07,14.70
2016,05,07,08,08,14.70
2016,05,07,08,09,14.80
2016,05,07,08,10,14.80
2016,05,07,08,11,14.80
2016,05,07,08,12,14.90
2016,05,07,08,13,14.90
2016,05,07,08,14,14.90
2016,05,07,08,15,15.00
2016,05,07,08,16,15.00
2016,05,07,08,17,15.10
2016,05,07,08,18,15.20
2016,05,07,08,19,15.20
2016,05,07,08,20,15.30
2016,05,07,08,21,15.30
2016,05,07,08,22,15.40
2016,05,07,08,23,15.50
2016,05,07,08,24,15.50
2016,05,07,08,25,15.60
2016,05,07,08,26,15.60
2016,05,07,08,27,15.70
2016,05,07,08,28,15.70
2016,05,07,08,29,15.80
2016,05,07,08,30,15.80
2016,05,07,08,31,15.90
2016,05,07,08,32,15.90
2016,05,07,08,33,16.00
2016,05,07,08,34,16.00
2016,05,07,08,35,16.10
2016,05,07,08,36,16.10
2016,05,07,08,37,16.20
2016,05,07,08,38,16.20
2016,05,07,08,39,16.30
2016,05,07,08,40,16.30
2016,05,07,08,41,16.40
2016,05,07,08,42,16.40
2016,05,07,08,43,16.50
2016,05,07,08,44,16.50
2016,05,07,08,45,16.60
2016,05,07,08,46,16.70
2016,05,07,08,47,16.80
2016,05,07,08,48,16.90
2016,05,07,08,49,17.00
2016,05,07,08,50,17.10
2016,05,07,08,51,17.20
2016,05,07,08,52,17.20
2016,05,07,08,53,17.30
2016,05,07,08,54,17.30
2016,05,07,08,55,17.30
2016,05,07,08,56,17.40
2016,05,07,08,57,17.50
2016,05,07,08,58,17.50
2016,05,07,08,59,17.60
2016,05,07,09,00,17.60
2016,05,07,09,01,17.70
2016,05,07,09,02,17.70
2016,05,07,09,03,17.80
2016,05,07,09,04,17.70
2016,05,07,09,05,17.70
2016,05,07,09,06,17.70
2016,05,07,09,07,17.70
2016,05,07,09,08,17.70
2016,05,07,09,09,17.70
2016,05,07,09,10,17.80
2016,05,07,09,11,17.80
2016,05,07,09,12,17.90
2016,05,07,09,13,17.90
2016,05,07,09,14,17.90
2016,05,07,09,15,17.90
2016,05,07,09,16,17.90
2016,05,07,09,17,18.00
2016,05,07,09,18,17.90
2016,05,07,09,19,17.90
2016,05,07,09,20,18.00
2016,05,07,09,21,18.00
2016,05,07,09,22,18.10
2016,05,07,09,23,18.10
2016,05,07,09,24,18.10
2016,05,07,09,25,18.10
2016,05,07,09,26,18.10
2016,05,07,09,27,18.10
2016,05,07,09,28,18.20
2016,05,07,09,29,18.20
2016,05,07,09,30,18.30
2016,05,07,09,31,18.30
2016,05,07,09,32,18.30
2016,05,07,09,33,18.30
2016,05,07,09,34,18.20
2016,05,07,09,35,18.20
2016,05,07,09,36,18.20
2016,05,07,09,37,18.20
2016,05,07,09,38,18.20
2016,05,07,09,39,18.30
2016,05,07,09,40,18.30
2016,05,07,09,41,18.40
2016,05,07,09,42,18.50
2016,05,07,09,43,18.60
2016,05,07,09,44,18.60
2016,05,07,09,45,18.60
2016,05,07,09,46,18.70
2016,05,07,09,47,18.70
2016,05,07,09,48,18.80
2016,05,07,09,49,18.80
2016,05,07,09,50,18.90
2016,05,07,09,51,18.90
2016,05,07,09,52,18.90
2016,05,07,09,53,19.00
2016,05,07,09,54,18.90
2016,05,07,09,55,18.90
2016,05,07,09,56,19.00
2016,05,07,09,57,19.00
2016,05,07,09,58,19.10
2016,05,07,09,59,19.10
2016,05,07,10,00,19.20
2016,05,07,10,01,19.20
2016,05,07,10,02,19.20
2016,05,07,10,03,19.30
2016,05,07,10,04,19.30
2016,05,07,10,05,19.40
2016,05,07,10,06,19.40
2016,05,07,10,07,19.50
2016,05,07,10,08,19.60
2016,05,07,10,09,19.70
2016,05,07,10,10,19.70
2016,05,07,10,11,19.80
2016,05,07,10,12,19.90
2016,05,07,10,13,19.90
2016,05,07,10,14,20.00
2016,05,07,10,15,20.00
2016,05,07,10,16,20.00
2016,05,07,10,17,20.00
2016,05,07,10,18,20.00
2016,05,07,10,19,20.00
2016,05,07,10,20,19.90
2016,05,07,10,21,19.90
2016,05,07,10,22,19.80
2016,05,07,10,23,19.80
2016,05,07,10,24,19.80
2016,05,07,10,25,19.80
2016,05,07,10,26,19.80
2016,05,07,10,27,19.80
2016,05,07,10,28,19.80
2016,05,07,10,29,19.80
2016,05,07,10,30,19.80
2016,05,07,10,31,19.80
2016,05,07,10,32,19.80
2016,05,07,10,33,19.80
2016,05,07,10,34,19.80
2016,05,07,10,35,19.90
2016,05,07,10,36,19.90
2016,05,07,10,37,20.00
2016,05,07,10,38,20.00
2016,05,07,10,39,20.10
2016,05,07,10,40,20.10
2016,05,07,10,41,20.10
2016,05,07,10,42,20.10
2016,05,07,10,43,20.20
2016,05,07,10,44,20.20
2016,05,07,10,45,20.20
2016,05,07,10,46,20.20
2016,05,07,10,47,20.20
2016,05,07,10,48,20.30
2016,05,07,10,49,20.30
2016,05,07,10,50,20.30
2016,05,07,10,51,20.20
2016,05,07,10,52,20.10
2016,05,07,10,53,20.00
2016,05,07,10,54,19.90
2016,05,07,10,55,19.90
2016,05,07,10,56,19.80
2016,05,07,10,57,19.80
2016,05,07,10,58,19.80
2016,05,07,10,59,19.80
2016,05,07,11,00,19.80
2016,05,07,11,01,19.80
2016,05,07,11,02,19.80
2016,05,07,11,03,19.60
2016,05,07,11,04,19.50
2016,05,07,11,05,19.40
2016,05,07,11,06,19.30
2016,05,07,11,07,19.30
2016,05,07,11,08,19.20
2016,05,07,11,09,19.20
2016,05,07,11,10,19.30
2016,05,07,11,11,19.30
2016,05,07,11,12,19.30
2016,05,07,11,13,19.30
2016,05,07,11,14,19.30
2016,05,07,11,15,19.30
2016,05,07,11,16,19.40
2016,05,07,11,17,19.40
2016,05,07,11,18,19.50
2016,05,07,11,19,19.50
2016,05,07,11,20,19.40
2016,05,07,11,21,19.40
2016,05,07,11,22,19.40
2016,05,07,11,23,19.30
2016,05,07,11,24,19.30
2016,05,07,11,25,19.20
2016,05,07,11,26,19.30
2016,05,07,11,27,19.30
2016,05,07,11,28,19.40
2016,05,07,11,29,19.50
2016,05,07,11,30,19.50
2016,05,07,11,31,19.60
2016,05,07,11,32,19.70
2016,05,07,11,33,19.70
2016,05,07,11,34,19.70
2016,05,07,11,35,19.70
2016,05,07,11,36,19.60
2016,05,07,11,37,19.60
2016,05,07,11,38,19.60
2016,05,07,11,39,19.60
2016,05,07,11,40,19.60
2016,05,07,11,41,19.60
2016,05,07,11,42,19.60
2016,05,07,11,43,19.60
2016,05,07,11,44,19.50
2016,05,07,11,45,19.40
2016,05,07,11,46,19.30
2016,05,07,11,47,19.10
2016,05,07,11,48,18.90
2016,05,07,11,49,18.90
2016,05,07,11,50,18.80
2016,05,07,11,51,18.70
2016,05,07,11,52,18.60
2016,05,07,11,53,18.40
2016,05,07,11,54,18.30
2016,05,07,11,55,18.20
2016,05,07,11,56,18.00
2016,05,07,11,57,18.00
2016,05,07,11,58,17.90
2016,05,07,11,59,17.90
2016,05,07,12,00,17.70
2016,05,07,12,01,17.60
2016,05,07,12,02,17.40
2016,05,07,12,03,17.40
2016,05,07,12,04,17.40
2016,05,07,12,05,17.50
2016,05,07,12,06,17.60
2016,05,07,12,07,17.80
2016,05,07,12,08,17.90
2016,05,07,12,09,18.00
2016,05,07,12,10,18.00
2016,05,07,12,11,17.90
2016,05,07,12,12,17.90
2016,05,07,12,13,17.90
2016,05,07,12,14,17.90
2016,05,07,12,15,17.90
2016,05,07,12,16,17.90
2016,05,07,12,17,17.90
2016,05,07,12,18,18.00
2016,05,07,12,19,18.00
2016,05,07,12,20,18.10
2016,05,07,12,21,18.10
2016,05,07,12,22,18.20
2016,05,07,12,23,18.20
2016,05,07,12,24,18.30
2016,05,07,12,25,18.30
2016,05,07,12,26,18.40
2016,05,07,12,27,18.40
2016,05,07,12,28,18.40
2016,05,07,12,29,18.50
2016,05,07,12,30,18.60
2016,05,07,12,31,18.60
2016,05,07,12,32,18.70
2016,05,07,12,33,18.70
2016,05,07,12,34,18.70
2016,05,07,12,35,18.70
2016,05,07,12,36,18.70
2016,05,07,12,37,18.70
2016,05,07,12,38,18.70
2016,05,07,12,39,18.70
2016,05,07,12,40,18.70
2016,05,07,12,41,18.80
2016,05,07,12,42,18.80
2016,05,07,12,43,19.00
2016,05,07,12,44,19.10
2016,05,07,12,45,19.30
2016,05,07,12,46,19.40
2016,05,07,12,47,19.50
2016,05,07,12,48,19.60
2016,05,07,12,49,19.60
2016,05,07,12,50,19.50
2016,05,07,12,51,19.40
2016,05,07,12,52,19.40
2016,05,07,12,53,19.30
2016,05,07,12,54,19.30
2016,05,07,12,55,19.40
2016,05,07,12,56,19.40
2016,05,07,12,57,19.40
2016,05,07,12,58,19.30
2016,05,07,12,59,19.30
2016,05,07,13,00,19.20
2016,05,07,13,01,19.20
2016,05,07,13,02,19.20
2016,05,07,13,03,19.10
2016,05,07,13,04,19.00
2016,05,07,13,05,19.00
2016,05,07,13,06,18.90
2016,05,07,13,07,18.90
2016,05,07,13,08,18.90
2016,05,07,13,09,19.00
2016,05,07,13,10,18.90
2016,05,07,13,11,18.80
2016,05,07,13,12,18.70
2016,05,07,13,13,18.60
2016,05,07,13,14,18.60
2016,05,07,13,15,18.60
2016,05,07,13,16,18.60
2016,05,07,13,17,18.60
2016,05,07,13,18,18.70
2016,05,07,13,19,18.80
2016,05,07,13,20,18.90
2016,05,07,13,21,19.00
2016,05,07,13,22,19.00
2016,05,07,13,23,19.00
2016,05,07,13,24,18.90
2016,05,07,13,25,18.90
2016,05,07,13,26,18.90
2016,05,07,13,27,19.00
2016,05,07,13,28,19.00
2016,05,07,13,29,18.90
2016,05,07,13,30,18.90
2016,05,07,13,31,18.90
2016,05,07,13,32,18.90
2016,05,07,13,33,19.00
2016,05,07,13,34,19.00
2016,05,07,13,35,19.00
2016,05,07,13,36,18.90
2016,05,07,13,37,18.90
2016,05,07,13,38,18.80
2016,05,07,13,39,18.80
2016,05,07,13,40,18.70
2016,05,07,13,41,18.60
2016,05,07,13,42,18.50
2016,05,07,13,43,18.40
2016,05,07,13,44,18.20
2016,05,07,13,45,18.10
2016,05,07,13,46,18.10
2016,05,07,13,47,18.20
2016,05,07,13,48,18.20
2016,05,07,13,49,18.20
2016,05,07,13,50,18.20
2016,05,07,13,51,18.20
2016,05,07,13,52,18.20
2016,05,07,13,53,18.20
2016,05,07,13,54,18.20
2016,05,07,13,55,18.20
2016,05,07,13,56,18.20
2016,05,07,13,57,18.20
2016,05,07,13,58,18.10
2016,05,07,13,59,17.90
2016,05,07,14,00,17.80
2016,05,07,14,01,17.70
2016,05,07,14,02,17.70
2016,05,07,14,03,17.70
2016,05,07,14,04,17.70
2016,05,07,14,05,17.60
2016,05,07,14,06,17.50
2016,05,07,14,07,17.40
2016,05,07,14,08,17.40
2016,05,07,14,09,17.40
2016,05,07,14,10,17.40
2016,05,07,14,11,17.40
2016,05,07,14,12,17.30
2016,05,07,14,13,17.30
2016,05,07,14,14,17.20
2016,05,07,14,15,17.30
2016,05,07,14,16,17.30
2016,05,07,14,17,17.30
2016,05,07,14,18,17.30
2016,05,07,14,19,17.20
2016,05,07,14,20,17.00
2016,05,07,14,21,17.00
2016,05,07,14,22,16.90
2016,05,07,14,23,16.90
2016,05,07,14,24,16.90
2016,05,07,14,25,16.80
2016,05,07,14,26,16.80
2016,05,07,14,27,16.70
2016,05,07,14,28,16.70
2016,05,07,14,29,16.70
2016,05,07,14,30,16.70
2016,05,07,14,31,16.70
2016,05,07,14,32,16.70
2016,05,07,14,33,16.70
2016,05,07,14,34,16.70
2016,05,07,14,35,16.80
2016,05,07,14,36,16.90
2016,05,07,14,37,17.10
2016,05,07,14,38,17.30
2016,05,07,14,39,17.40
2016,05,07,14,40,17.50
2016,05,07,14,41,17.60
2016,05,07,14,42,17.60
2016,05,07,14,43,17.60
2016,05,07,14,44,17.60
2016,05,07,14,45,17.60
2016,05,07,14,46,17.60
2016,05,07,14,47,17.60
2016,05,07,14,48,17.60
2016,05,07,14,49,17.60
2016,05,07,14,50,17.60
2016,05,07,14,51,17.60
2016,05,07,14,52,17.70
2016,05,07,14,53,17.80
2016,05,07,14,54,17.90
2016,05,07,14,55,18.00
2016,05,07,14,56,18.20
2016,05,07,14,57,18.40
2016,05,07,14,58,18.70
2016,05,07,14,59,19.30
2016,05,07,15,00,19.80
2016,05,07,15,01,20.20
2016,05,07,15,02,20.70
2016,05,07,15,03,21.10
2016,05,07,15,04,21.50
2016,05,07,15,05,21.80
2016,05,07,15,06,22.10
2016,05,07,15,07,22.30
2016,05,07,15,08,22.60
2016,05,07,15,09,22.80
2016,05,07,15,10,23.00
2016,05,07,15,11,23.10
2016,05,07,15,12,23.20
2016,05,07,15,13,23.30
2016,05,07,15,14,23.30
2016,05,07,15,15,23.40
2016,05,07,15,16,23.40
2016,05,07,15,17,23.40
2016,05,07,15,18,23.40
2016,05,07,15,19,23.30
2016,05,07,15,20,23.30
2016,05,07,15,21,23.20
2016,05,07,15,22,23.10
2016,05,07,15,23,23.00
2016,05,07,15,24,22.80
2016,05,07,15,25,22.70
2016,05,07,15,26,22.70
2016,05,07,15,27,22.70
2016,05,07,15,28,22.70
2016,05,07,15,29,22.60
2016,05,07,15,30,22.60
2016,05,07,15,31,22.50
2016,05,07,15,32,22.40
2016,05,07,15,33,22.30
2016,05,07,15,34,22.20
2016,05,07,15,35,22.10
2016,05,07,15,36,22.10
2016,05,07,15,37,22.00
2016,05,07,15,38,21.90
2016,05,07,15,39,21.80
2016,05,07,15,40,21.70
2016,05,07,15,41,21.60
2016,05,07,15,42,21.50
2016,05,07,15,43,21.40
2016,05,07,15,44,21.40
2016,05,07,15,45,21.20
2016,05,07,15,46,21.00
2016,05,07,15,47,20.90
2016,05,07,15,48,20.80
2016,05,07,15,49,20.70
2016,05,07,15,50,20.60
2016,05,07,15,51,20.50
2016,05,07,15,52,20.30
2016,05,07,15,53,20.10
2016,05,07,15,54,19.90
2016,05,07,15,55,19.70
2016,05,07,15,56,19.70
2016,05,07,15,57,19.60
2016,05,07,15,58,19.50
2016,05,07,15,59,19.40
2016,05,07,16,00,19.40
2016,05,07,16,01,19.50
2016,05,07,16,02,19.60
2016,05,07,16,03,19.80
2016,05,07,16,04,19.80
2016,05,07,16,05,19.80
2016,05,07,16,06,19.80
2016,05,07,16,07,19.70
2016,05,07,16,08,19.50
2016,05,07,16,09,19.30
2016,05,07,16,10,19.20
2016,05,07,16,11,19.10
2016,05,07,16,12,19.00
2016,05,07,16,13,18.90
2016,05,07,16,14,18.80
2016,05,07,16,15,18.70
2016,05,07,16,16,18.70
2016,05,07,16,17,18.60
2016,05,07,16,18,18.50
2016,05,07,16,19,18.50
2016,05,07,16,20,18.60
2016,05,07,16,21,18.60
2016,05,07,16,22,18.60
2016,05,07,16,23,18.60
2016,05,07,16,24,18.60
2016,05,07,16,25,18.50
2016,05,07,16,26,18.50
2016,05,07,16,27,18.40
2016,05,07,16,28,18.40
2016,05,07,16,29,18.30
2016,05,07,16,30,18.30
2016,05,07,16,31,18.20
2016,05,07,16,32,18.10
2016,05,07,16,33,18.10
2016,05,07,16,34,18.00
2016,05,07,16,35,17.90
2016,05,07,16,36,17.90
2016,05,07,16,37,17.90
2016,05,07,16,38,17.90
2016,05,07,16,39,17.90
2016,05,07,16,40,17.80
2016,05,07,16,41,17.80
2016,05,07,16,42,17.90
2016,05,07,16,43,17.90
2016,05,07,16,44,17.90
2016,05,07,16,45,18.00
2016,05,07,16,46,18.00
2016,05,07,16,47,17.90
2016,05,07,16,48,17.90
2016,05,07,16,49,17.90
2016,05,07,16,50,17.90
2016,05,07,16,51,17.90
2016,05,07,16,52,17.90
2016,05,07,16,53,17.80
2016,05,07,16,54,17.70
2016,05,07,16,55,17.60
2016,05,07,16,56,17.60
2016,05,07,16,57,17.50
2016,05,07,16,58,17.30
2016,05,07,16,59,17.20
2016,05,07,17,00,17.10
2016,05,07,17,01,17.00
2016,05,07,17,02,16.80
2016,05,07,17,03,16.70
2016,05,07,17,04,16.60
2016,05,07,17,05,16.60
2016,05,07,17,06,16.60
2016,05,07,17,07,16.40
2016,05,07,17,08,16.30
2016,05,07,17,09,16.20
2016,05,07,17,10,16.20
2016,05,07,17,11,16.10
2016,05,07,17,12,16.10
2016,05,07,17,13,16.10
2016,05,07,17,14,16.10
2016,05,07,17,15,16.10
2016,05,07,17,16,16.10
2016,05,07,17,17,16.20
2016,05,07,17,18,16.20
2016,05,07,17,19,16.20